Portada
METAR-TAF:

METAR-TAF

Aeropuertos :

Tabas, Irán

latitud: 33-36N, longitud: 056-55E, altitud: 710 m

Observación

El informe se hizo hace 1 hora y 9 minutos, a las 02:00 UTC
Viento 6 kt del norte-noroeste
Temperatura 9°C
Humedad 71%
Presión 1017 hPa

METAR: OIMT 270200Z AUTO 33006KT //// // ////// 09/04 Q1017

Hora: 06:39 (03:09 UTC)


TAF: falta

Observaciones y pronósticos meteorológicos de más de 4000 aeropuertos (mensajes METAR y TAF).

Los puntos amarillos y rojos representan las estaciones disponibles.

Ponga el ratón en el punto deseado para ver el nombre de la estación.

Haga clic para ver las observaciones y los pronósticos meteorológicos.

Para cambiar el mapa : haga clic en los botones verdes con una cruz de color negro para hacer un zoom, en el botón verde con un guión para alejar o en las flechas verdes para mapas adyacentes.


METAR-TAF: